This is the latest recevied weather packets stored in our database for station/object KF5JED-13. If no packets are shown the sender has not sent any weather packets the latest 10 day(s).
| Time | Temp. | Humidity | Pressure | Rain* | Wind** | Luminosity | Snow |
|---|---|---|---|---|---|---|---|
| 1777975921 | 16.67° C | 41% | 1005.8 hPa | 0 mm | - | 0 W/m² | - |
| 1777975617 | 17.22° C | 37% | 1005.6 hPa | 0 mm | - | 0 W/m² | - |
| 1777975314 | 17.78° C | 34% | 1005.7 hPa | 0 mm | - | 0 W/m² | - |
| 1777975010 | 18.33° C | 30% | 1005.6 hPa | 0 mm | - | 0 W/m² | - |
| 1777974100 | 17.78° C | 31% | 1005 hPa | 0 mm | - | 0 W/m² | - |
| 1777973796 | 17.78° C | 31% | 1004.8 hPa | 0 mm | - | 0 W/m² | - |
| 1777973494 | 17.78° C | 31% | 1004.9 hPa | 0 mm | - | 0 W/m² | - |
| 1777973191 | 17.78° C | 31% | 1005.2 hPa | 0 mm | - | 0 W/m² | - |
| 1777972890 | 18.33° C | 30% | 1004.9 hPa | 0 mm | - | 0 W/m² | - |
| 1777972586 | 18.33° C | 30% | 1004.9 hPa | 0 mm | - | 0 W/m² | - |
| 1777972284 | 18.33° C | 30% | 1004.4 hPa | 0 mm | - | 0 W/m² | - |
| 1777971981 | 18.33° C | 30% | 1004.2 hPa | 0 mm | - | 0 W/m² | - |
| 1777971679 | 18.89° C | 29% | 1004.3 hPa | 0 mm | - | 0 W/m² | - |
| 1777971377 | 19.44° C | 29% | 1004.2 hPa | 0 mm | - | 0 W/m² | - |
| 1777970471 | 20° C | 28% | 1004.1 hPa | 0 mm | - | 0 W/m² | - |
| 1777970168 | 20° C | 27% | 1003.9 hPa | 0 mm | - | 0 W/m² | - |
| 1777969864 | 20° C | 27% | 1004.1 hPa | 0 mm | - | 0 W/m² | - |
| 1777969560 | 20° C | 27% | 1004.1 hPa | 0 mm | - | 0 W/m² | - |
| 1777969257 | 20.56° C | 27% | 1004 hPa | 0 mm | - | 0 W/m² | - |
| 1777968953 | 20.56° C | 27% | 1004.2 hPa | 0 mm | - | 0 W/m² | - |
| 1777968650 | 20.56° C | 27% | 1004.4 hPa | 0 mm | - | 0 W/m² | - |
| 1777968346 | 20.56° C | 26% | 1004.3 hPa | 0 mm | - | 0 W/m² | - |
| 1777968044 | 20.56° C | 26% | 1004.2 hPa | 0 mm | - | 0 W/m² | - |
| 1777967739 | 21.11° C | 25% | 1004.3 hPa | 0 mm | - | 0 W/m² | - |
| 1777967436 | 21.11° C | 25% | 1004.3 hPa | 0 mm | - | 0 W/m² | - |
* Rain latest hour (hover to see other rain measurements)
** Current wind speed in m/s (hover to see current wind gust speed)